Location: Lake Runnemede Observatory
(43.4843°N, 72.3851°W)
Time: 10:46:35
(UTC-04:00)

Amateur Radio Satellites - All Passes

Search period start: 26 September 2017 10:16
Search period end: 27 September 2017 10:16
Location: Lake Runnemede Observatory, 43.4843°N, 72.3851°W

Satellite Date Start Highest point End Downlink Frequencies (MHz)
Time Altitude Azimuth
AAUSAT CUBESAT 2 26 Sep 10:18:29 10:20:34 14° 297° (WNW) 10:22:36 437.432
O/OREOS (USA 219) 26 Sep 10:22:13 10:24:54 15° 50° (NE) 10:27:34 437.305
TIGRISAT 26 Sep 10:22:53 10:27:04 47° 261° (W) 10:31:25 435.000
HO-68 26 Sep 10:27:39 10:31:49 17° 309° (NW) 10:35:59 435.675
QB50P2 26 Sep 10:33:15 10:35:24 14° 62° (ENE) 10:37:34 145.880/145.840
Oscar 11 26 Sep 10:33:41 10:37:12 24° 293° (WNW) 10:40:42 .
AIST 2D 26 Sep 10:35:13 10:38:10 25° 70° (ENE) 10:41:09 435.315
AO-73 26 Sep 10:38:34 10:41:37 18° 297° (WNW) 10:44:39 145.935
ZACube-1 26 Sep 10:43:41 10:46:13 15° 298° (WNW) 10:48:44 437.345
YUBILEINY 26 Sep 10:51:36 10:57:51 23° 79° (E) 11:04:05 435.215
NO-84 26 Sep 11:00:17 11:01:46 12° 125° (SE) 11:03:13 435.350 FM
EO-88 26 Sep 11:03:50 11:07:28 70° 285° (WNW) 11:11:06 145.990 - 145.960
NANOSAT C BR1 26 Sep 11:04:12 11:07:31 23° 66° (ENE) 11:10:51 145.865
DELFI C3 26 Sep 11:18:09 11:21:31 28° 290° (WNW) 11:24:53 145.870
M-CUBED/EXP-1 PRIME 26 Sep 11:23:33 11:26:21 18° 61° (ENE) 11:29:02 437.505
DUCHIFAT 1 26 Sep 11:30:16 11:34:07 37° 70° (ENE) 11:38:01 145.980
ESTCUBE 1 26 Sep 11:32:44 11:36:17 23° 94° (E) 11:39:48 437.505/2401.250
PRISM 26 Sep 11:42:04 11:43:16 11° 270° (W) 11:44:28 437.425
Max Valier Satellite 26 Sep 11:44:26 11:47:03 18° 293° (WNW) 11:49:39 145.860
RS-15 26 Sep 11:44:51 11:55:41 35° 27° (NNE) 12:06:02 29.354- 29.394
POLYITAN 1 26 Sep 11:48:17 11:52:29 77° 76° (ENE) 11:56:45 437.675
LO-87 26 Sep 11:50:15 11:53:47 51° 100° (E) 11:57:19 145.935 - 145.965
EO-79 26 Sep 11:51:42 11:55:53 83° 78° (ENE) 12:00:09 145.935-145.965
BUGSAT 1 26 Sep 11:54:34 11:57:25 19° 65° (ENE) 12:00:19 437.445
O/OREOS (USA 219) 26 Sep 12:00:15 12:04:51 73° 250° (WSW) 12:09:27 437.305
QB50P2 26 Sep 12:06:31 12:10:40 61° 259° (W) 12:14:54 145.880/145.840
AIST 2D 26 Sep 12:08:39 12:11:20 20° 266° (W) 12:14:03 435.315
Oscar 19 26 Sep 12:24:25 12:28:33 25° 64° (ENE) 12:32:42 437.125/150
SO-50 26 Sep 12:27:26 12:29:57 15° 109° (ESE) 12:32:27 436.795
Gurwin Techsat 1B 26 Sep 12:34:09 12:38:04 21° 62° (ENE) 12:42:00 435.225
NO-84 26 Sep 12:34:49 12:38:46 85° 140° (SE) 12:42:24 435.350 FM
NANOSAT C BR1 26 Sep 12:39:16 12:43:03 32° 263° (W) 12:46:52 145.865
YUBILEINY 26 Sep 12:44:55 12:53:37 79° 279° (W) 13:02:22 435.215
PCSat 26 Sep 12:54:55 12:57:31 14° 103° (ESE) 13:00:07 145.827
M-CUBED/EXP-1 PRIME 26 Sep 12:56:32 13:00:32 43° 255° (WSW) 13:04:18 437.505
SPROUT 26 Sep 12:59:35 13:03:45 47° 99° (E) 13:07:54 437.525
DUCHIFAT 1 26 Sep 13:06:52 13:09:54 19° 267° (W) 13:12:59 145.980
ESTCUBE 1 26 Sep 13:09:03 13:13:11 36° 290° (WNW) 13:17:16 437.505/2401.250
VELOX 1 26 Sep 13:23:58 13:28:20 61° 102° (ESE) 13:32:40 145.980
LO-87 26 Sep 13:25:25 13:26:46 12° 296° (WNW) 13:28:05 145.935 - 145.965
BUGSAT 1 26 Sep 13:28:45 13:32:31 37° 262° (W) 13:36:20 437.445
AO-7 26 Sep 13:45:00 13:51:44 29° 53° (NE) 13:58:27 .
RS-15 26 Sep 13:58:04 14:10:11 84° 55° (NE) 14:21:36 29.354- 29.394
Oscar 19 26 Sep 14:02:36 14:07:35 46° 261° (W) 14:12:36 437.125/150
SO-50 26 Sep 14:05:24 14:09:52 66° 306° (NW) 14:14:22 436.795
50 SAT 26 Sep 14:09:23 14:12:41 70° 102° (ESE) 14:15:59 437.505
UKube-1 26 Sep 14:09:28 14:13:20 31° 97° (E) 14:17:10 .
Gurwin Techsat 1B 26 Sep 14:12:24 14:17:36 56° 260° (W) 14:22:50 435.225
NO-84 26 Sep 14:13:36 14:16:30 21° 337° (NNW) 14:19:14 435.350 FM
DX 1 26 Sep 14:22:43 14:27:03 69° 102° (ESE) 14:31:22 434.975-435.025
PCSat 26 Sep 14:34:42 14:40:07 86° 297° (WNW) 14:45:36 145.827
SPROUT 26 Sep 14:36:26 14:39:17 17° 296° (WNW) 14:42:07 437.525
YUBILEINY 26 Sep 14:46:39 14:52:01 17° 302° (WNW) 14:57:25 435.215
VELOX 1 26 Sep 15:01:53 15:04:16 15° 298° (WNW) 15:06:40 145.980
ITAMSAT 1 26 Sep 15:14:07 15:19:11 60° 71° (ENE) 15:24:17 435.822/435.867
AO-7 26 Sep 15:35:27 15:43:46 75° 254° (WSW) 15:52:07 .
ITUPSAT 1 26 Sep 15:38:51 15:43:16 34° 97° (E) 15:47:37 437.325
UKube-1 26 Sep 15:45:41 15:49:13 25° 294° (WNW) 15:52:43 .
SO-50 26 Sep 15:49:06 15:51:12 13° 327° (NNW) 15:53:19 436.795
DOVE 4 26 Sep 15:49:22 15:50:15 11° 61° (ENE) 15:51:09 437.250
NO-84 26 Sep 15:53:35 15:54:55 12° 358° (N) 15:56:13 435.350 FM
DX 1 26 Sep 16:00:41 16:02:40 13° 299° (WNW) 16:04:40 434.975-435.025
RS-15 26 Sep 16:11:55 16:21:10 28° 258° (WSW) 16:30:05 29.354- 29.394
BEESAT 26 Sep 16:13:04 16:17:52 77° 103° (ESE) 16:22:40 436.000
MOZHAYETS 4 26 Sep 16:16:04 16:20:45 87° 103° (ESE) 16:25:22
PCSat 26 Sep 16:20:44 16:24:20 18° 321° (NW) 16:27:59 145.827
LilacSat-2 26 Sep 16:50:45 16:52:31 13° 63° (ENE) 16:54:17 437.200
CUBESAT XI-V 26 Sep 16:51:09 16:55:35 44° 98° (E) 16:59:58 437.345
ITAMSAT 1 26 Sep 16:55:37 16:59:03 18° 269° (W) 17:02:30 435.822/435.867
KAITUO 1B 26 Sep 16:57:50 16:58:17 10° 62° (ENE) 16:58:45 145.475/437.950
ITUPSAT 1 26 Sep 17:16:52 17:20:57 28° 294° (WNW) 17:25:01 437.325
HO-68 26 Sep 17:22:41 17:27:34 20° 54° (NE) 17:32:27 435.675
DOVE 4 26 Sep 17:23:02 17:27:23 79° 258° (WSW) 17:31:36 437.250
CUTE-I 26 Sep 17:26:02 17:30:43 33° 66° (ENE) 17:35:25 437.470
NO-84 26 Sep 17:31:03 17:33:24 18° 20° (NNE) 17:35:37 435.350 FM
XW-2D 26 Sep 17:32:27 17:35:57 34° 71° (ENE) 17:39:28 145.860 - 145.880
AO-7 26 Sep 17:33:40 17:37:52 15° 273° (W) 17:42:04 .
XW-2F 26 Sep 17:42:03 17:45:39 41° 72° (ENE) 17:49:17 145.980 - 146.000
XW-2B 26 Sep 17:44:42 17:48:23 46° 73° (ENE) 17:52:06 145.730 - 145.750
KKS-1 26 Sep 17:48:59 17:53:24 59° 101° (ESE) 17:57:47 437.445
BEESAT 26 Sep 17:52:35 17:55:00 14° 301° (WNW) 17:57:25 436.000
NUDT-PHONESAT 26 Sep 17:54:13 17:57:46 42° 73° (ENE) 18:01:21 437.300
MOZHAYETS 4 26 Sep 17:55:38 17:57:11 12° 301° (WNW) 17:58:43
STARS 26 Sep 18:04:03 18:08:06 34° 97° (E) 18:12:08 437.465
XW-2C 26 Sep 18:06:04 18:09:55 87° 77° (ENE) 18:13:48 145.795 - 145.815
CUTE 1.7 + AOD 2 26 Sep 18:19:33 18:23:04 25° 68° (ENE) 18:26:36 437.475
LilacSat-2 26 Sep 18:22:32 18:26:20 54° 260° (W) 18:30:10 437.200
KAITUO 1B 26 Sep 18:27:56 18:31:42 68° 259° (WSW) 18:35:31 145.475/437.950
CUBESAT XI-V 26 Sep 18:29:13 18:32:39 21° 296° (WNW) 18:36:03 437.345
Tancredo 1 26 Sep 18:41:44 18:44:23 75° 145° (SE) 18:47:03 437.200
BEESAT 3 26 Sep 18:42:24 18:46:06 37° 117° (ESE) 18:49:51 437.485
XW-2A 26 Sep 18:50:24 18:52:53 19° 68° (ENE) 18:55:23 145.665 - 145.685
BEESAT 2 26 Sep 18:58:52 19:01:34 18° 111° (ESE) 19:04:18 435.950
ISS 26 Sep 19:02:41 19:04:59 18° 134° (SE) 19:07:17 437.550
CUTE-I 26 Sep 19:05:54 19:10:42 34° 263° (W) 19:15:31 437.470
HO-68 26 Sep 19:07:12 19:14:22 90° 273° (W) 19:21:35 435.675
XW-2D 26 Sep 19:07:35 19:10:14 18° 267° (W) 19:12:53 145.860 - 145.880
NO-84 26 Sep 19:08:02 19:11:08 78° 220° (SW) 19:14:02 435.350 FM
XW-2F 26 Sep 19:17:43 19:19:57 15° 268° (W) 19:22:12 145.980 - 146.000
SEEDS 26 Sep 19:19:41 19:23:53 70° 76° (ENE) 19:28:07 437.485
XW-2B 26 Sep 19:20:54 19:22:49 13° 269° (W) 19:24:44 145.730 - 145.750
UWE-3 26 Sep 19:22:45 19:26:48 39° 70° (ENE) 19:30:58 435.000/436.395/437.385
CUBEBUG 2 26 Sep 19:22:47 19:27:02 67° 74° (ENE) 19:31:28 437.445
KKS-1 26 Sep 19:26:51 19:29:28 16° 298° (WNW) 19:32:06 437.445
NUDT-PHONESAT 26 Sep 19:29:53 19:31:51 14° 269° (W) 19:33:49 437.300
AO-85 26 Sep 19:31:25 19:35:00 36° 117° (ESE) 19:38:37 145.980
AAUSAT CUBESAT 2 26 Sep 19:32:18 19:36:13 42° 72° (ENE) 19:40:09 437.432
nSIGHT-1 26 Sep 19:34:36 19:37:37 38° 140° (SE) 19:40:39 .
STARS 26 Sep 19:40:44 19:44:16 24° 294° (WNW) 19:47:47 437.465
STRAND 1 26 Sep 19:41:37 19:46:14 32° 96° (E) 19:50:49 437.568
Oscar 11 26 Sep 19:53:04 19:56:49 29° 68° (ENE) 20:00:35 .
CUTE 1.7 + AOD 2 26 Sep 19:55:00 19:58:47 30° 264° (W) 20:02:35 437.475
AO-73 26 Sep 19:57:29 20:01:38 45° 72° (ENE) 20:05:56 145.935
ZACube-1 26 Sep 20:02:19 20:06:36 57° 74° (ENE) 20:11:01 437.345
Tancredo 1 26 Sep 20:16:56 20:19:02 20° 344° (NNW) 20:21:07 437.200
BEESAT 3 26 Sep 20:20:25 20:23:45 25° 315° (NW) 20:27:07 437.485
XW-2A 26 Sep 20:22:33 20:25:27 25° 264° (W) 20:28:21 145.665 - 145.685
DELFI C3 26 Sep 20:30:39 20:33:05 16° 65° (ENE) 20:35:30 145.870
BEESAT 2 26 Sep 20:35:04 20:38:57 46° 309° (NW) 20:42:54 435.950
ISS 26 Sep 20:37:55 20:41:09 62° 330° (NNW) 20:44:26 437.550
Max Valier Satellite 26 Sep 20:50:26 20:53:02 18° 67° (ENE) 20:55:39 145.860
SO-50 26 Sep 20:55:31 20:59:13 23° 42° (NE) 21:02:56 436.795
HO-68 26 Sep 20:58:44 21:03:00 17° 272° (W) 21:07:18 435.675
SEEDS 26 Sep 20:59:04 21:00:02 11° 272° (W) 21:00:59 437.485
UWE-3 26 Sep 21:00:10 21:03:24 20° 268° (W) 21:06:43 435.000/436.395/437.385
YUBILEINY 26 Sep 21:00:20 21:03:04 12° 52° (NE) 21:05:48 435.215
CUBEBUG 2 26 Sep 21:02:40 21:04:11 12° 272° (W) 21:05:43 437.445
AAUSAT CUBESAT 2 26 Sep 21:09:08 21:11:51 17° 268° (W) 21:14:35 437.432
nSIGHT-1 26 Sep 21:10:58 21:13:58 34° 338° (NNW) 21:16:59 .
AO-85 26 Sep 21:12:19 21:15:28 23° 316° (NW) 21:18:43 145.980
STRAND 1 26 Sep 21:20:47 21:25:22 33° 293° (WNW) 21:29:56 437.568
Oscar 11 26 Sep 21:29:11 21:32:54 27° 265° (W) 21:36:38 .
AO-73 26 Sep 21:35:06 21:38:06 18° 269° (W) 21:41:11 145.935
PCSat 26 Sep 21:38:58 21:42:49 19° 40° (NE) 21:46:40 145.827
ZACube-1 26 Sep 21:40:53 21:43:16 14° 271° (W) 21:45:41 437.345
EO-88 26 Sep 21:42:02 21:45:37 55° 74° (ENE) 21:49:14 145.990 - 145.960
UNISAT 6 26 Sep 21:50:39 21:54:17 22° 93° (E) 21:57:54 437.425
Tancredo 1 26 Sep 21:52:30 21:54:07 15° 4° (N) 21:55:45 437.200
FO-29 26 Sep 22:00:25 22:06:01 75° 103° (ESE) 22:12:17 435.910
DELFI C3 26 Sep 22:03:44 22:07:29 43° 261° (W) 22:11:16 145.870
TIGRISAT 26 Sep 22:12:53 22:17:07 33° 96° (E) 22:21:21 435.000
ISS 26 Sep 22:15:29 22:18:06 21° 350° (N) 22:20:44 437.550
Max Valier Satellite 26 Sep 22:23:15 22:26:37 32° 263° (W) 22:30:02 145.860
LO-87 26 Sep 22:27:33 22:30:25 24° 69° (ENE) 22:33:20 145.935 - 145.965
ESTCUBE 1 26 Sep 22:33:15 22:36:56 25° 66° (ENE) 22:40:36 437.505/2401.250
SO-50 26 Sep 22:35:29 22:39:58 54° 240° (WSW) 22:44:29 436.795
nSIGHT-1 26 Sep 22:48:32 22:50:57 19° 358° (N) 22:53:22 .
YUBILEINY 26 Sep 22:53:37 23:02:11 56° 76° (ENE) 23:10:45 435.215
PRISM 26 Sep 23:18:32 23:22:37 88° 94° (E) 23:26:41 437.425
EO-88 26 Sep 23:19:07 23:19:36 10° 270° (W) 23:20:04 145.990 - 145.960
PCSat 26 Sep 23:21:28 23:26:56 85° 240° (WSW) 23:32:21 145.827
Tancredo 1 26 Sep 23:26:40 23:29:07 31° 23° (NNE) 23:31:33 437.200
UNISAT 6 26 Sep 23:26:42 23:31:07 42° 290° (WNW) 23:35:33 437.425
AIST 2D 26 Sep 23:31:42 23:34:41 25° 96° (E) 23:37:38 435.315
POLYITAN 1 26 Sep 23:33:58 23:35:28 12° 89° (E) 23:36:58 437.675
EO-79 26 Sep 23:36:52 23:38:44 13° 90° (E) 23:40:35 145.935-145.965
FO-29 26 Sep 23:47:04 23:50:38 18° 299° (WNW) 23:54:25 435.910
TIGRISAT 26 Sep 23:49:42 23:53:41 28° 293° (WNW) 23:57:39 435.000
QB50P2 26 Sep 23:50:43 23:53:54 20° 93° (E) 23:57:03 145.880/145.840
ISS 26 Sep 23:52:43 23:55:21 22° 10° (N) 23:58:01 437.550
SPROUT 26 Sep 23:53:43 23:57:41 40° 71° (ENE) 00:01:41 437.525
LO-87 27 Sep 00:01:03 00:03:48 21° 265° (W) 00:06:34 145.935 - 145.965
ESTCUBE 1 27 Sep 00:09:25 00:13:33 35° 263° (W) 00:17:43 437.505/2401.250
NANOSAT C BR1 27 Sep 00:21:50 00:25:45 34° 97° (E) 00:29:38 145.865
VELOX 1 27 Sep 00:21:54 00:26:14 62° 73° (ENE) 00:30:35 145.980
nSIGHT-1 27 Sep 00:25:08 00:28:00 28° 18° (NNE) 00:30:53 .
O/OREOS (USA 219) 27 Sep 00:38:11 00:39:15 11° 97° (E) 00:40:18 437.305
50 SAT 27 Sep 00:40:13 00:43:00 26° 70° (ENE) 00:45:50 437.505
DUCHIFAT 1 27 Sep 00:47:59 00:52:13 59° 101° (E) 00:56:25 145.980
YUBILEINY 27 Sep 00:51:03 00:58:32 33° 276° (W) 01:06:02 435.215
Tancredo 1 27 Sep 01:01:06 01:03:28 28° 221° (SW) 01:05:49 437.200
UKube-1 27 Sep 01:04:51 01:08:39 31° 68° (ENE) 01:12:27 .
AIST 2D 27 Sep 01:05:06 01:07:43 20° 292° (WNW) 01:10:18 435.315
POLYITAN 1 27 Sep 01:07:24 01:11:40 67° 286° (WNW) 01:15:56 437.675
PCSat 27 Sep 01:07:35 01:09:27 12° 258° (WSW) 01:11:18 145.827
BUGSAT 1 27 Sep 01:09:02 01:12:38 27° 96° (E) 01:16:13 437.445
EO-79 27 Sep 01:10:38 01:14:52 61° 287° (WNW) 01:19:05 145.935-145.965
DX 1 27 Sep 01:18:56 01:23:14 69° 74° (ENE) 01:27:34 434.975-435.025
QB50P2 27 Sep 01:25:50 01:29:48 38° 290° (WNW) 01:33:46 145.880/145.840
ISS 27 Sep 01:29:00 01:32:17 65° 30° (NNE) 01:35:33 437.550
SPROUT 27 Sep 01:30:48 01:33:45 18° 268° (W) 01:36:43 437.525
MOZHAYETS 4 27 Sep 01:45:11 01:46:48 12° 59° (ENE) 01:48:25
BEESAT 27 Sep 01:45:47 01:47:58 13° 59° (ENE) 01:50:09 436.000
NANOSAT C BR1 27 Sep 01:57:55 02:01:15 23° 294° (WNW) 02:04:36 145.865
VELOX 1 27 Sep 02:01:04 02:03:05 13° 270° (W) 02:05:05 145.980
nSIGHT-1 27 Sep 02:01:18 02:04:30 60° 217° (SW) 02:07:43 .
M-CUBED/EXP-1 PRIME 27 Sep 02:07:56 02:11:13 70° 290° (WNW) 02:14:27 437.505
Oscar 19 27 Sep 02:12:41 02:17:47 57° 101° (E) 02:22:49 437.125/150
50 SAT 27 Sep 02:13:19 02:15:30 16° 266° (W) 02:17:42 437.505
O/OREOS (USA 219) 27 Sep 02:13:25 02:17:56 77° 293° (WNW) 02:22:30 437.305
AO-85 27 Sep 02:22:46 02:23:12 10° 32° (NNE) 02:23:38 145.980
DUCHIFAT 1 27 Sep 02:25:06 02:27:24 14° 298° (WNW) 02:29:41 145.980
Gurwin Techsat 1B 27 Sep 02:27:15 02:32:28 53° 100° (E) 02:37:38 435.225
UKube-1 27 Sep 02:41:09 02:44:40 24° 265° (W) 02:48:13 .
BUGSAT 1 27 Sep 02:44:18 02:47:56 28° 292° (WNW) 02:51:33 437.445
ITUPSAT 1 27 Sep 02:46:26 02:51:00 46° 70° (ENE) 02:55:36 437.325
BEESAT 3 27 Sep 02:57:51 03:01:30 33° 48° (NE) 03:05:05 437.485
DX 1 27 Sep 02:58:28 02:59:53 11° 270° (W) 03:01:17 434.975-435.025
ISS 27 Sep 03:06:12 03:08:27 17° 226° (SW) 03:10:42 437.550
BEESAT 2 27 Sep 03:14:24 03:17:23 19° 41° (NE) 03:20:20 435.950
MOZHAYETS 4 27 Sep 03:18:37 03:23:14 87° 254° (WSW) 03:27:55
BEESAT 27 Sep 03:20:18 03:25:04 82° 258° (WSW) 03:29:52 436.000
ITAMSAT 1 27 Sep 03:26:38 03:30:17 19° 92° (E) 03:33:55 435.822/435.867
AO-7 27 Sep 03:36:05 03:43:29 35° 97° (E) 03:50:50 .
Oscar 19 27 Sep 03:52:57 03:56:39 20° 298° (WNW) 04:00:21 437.125/150
CUBESAT XI-V 27 Sep 03:55:08 03:59:39 49° 72° (ENE) 04:04:11 437.345
O/OREOS (USA 219) 27 Sep 03:57:00 03:58:10 11° 314° (NW) 03:59:20 437.305
AO-85 27 Sep 04:00:15 04:04:34 50° 52° (NE) 04:09:10 145.980
Gurwin Techsat 1B 27 Sep 04:07:59 04:12:01 23° 298° (WNW) 04:16:04 435.225
RS-15 27 Sep 04:21:29 04:32:58 50° 110° (ESE) 04:44:31 29.354- 29.394
ITUPSAT 1 27 Sep 04:25:31 04:29:02 20° 267° (W) 04:32:35 437.325
BEESAT 3 27 Sep 04:35:40 04:38:54 24° 246° (WSW) 04:42:07 437.485
KKS-1 27 Sep 04:47:48 04:52:09 62° 73° (ENE) 04:56:33 437.445
BEESAT 2 27 Sep 04:51:28 04:55:26 53° 240° (WSW) 04:59:19 435.950
STARS 27 Sep 05:01:34 05:05:31 35° 69° (ENE) 05:09:31 437.465
ITAMSAT 1 27 Sep 05:04:59 05:10:06 57° 289° (WNW) 05:15:12 435.822/435.867
DOVE 4 27 Sep 05:20:22 05:23:52 23° 95° (E) 05:27:28 437.250
AO-7 27 Sep 05:28:31 05:36:34 57° 296° (WNW) 05:44:35 .
CUBESAT XI-V 27 Sep 05:34:02 05:37:17 18° 268° (W) 05:40:31 437.345
AO-85 27 Sep 05:41:18 05:44:43 21° 247° (WSW) 05:48:19 145.980
CUTE-I 27 Sep 05:44:07 05:45:28 11° 87° (E) 05:46:49 437.470
LilacSat-2 27 Sep 05:55:45 05:57:53 14° 91° (E) 05:59:59 437.200
KAITUO 1B 27 Sep 06:00:21 06:01:02 10° 89° (E) 06:01:43 145.475/437.950
KKS-1 27 Sep 06:27:03 06:29:07 13° 270° (W) 06:31:11 437.445
RS-15 27 Sep 06:33:13 06:45:21 59° 314° (NW) 06:57:29 29.354- 29.394
HO-68 27 Sep 06:35:32 06:39:41 16° 88° (E) 06:43:48 435.675
XW-2D 27 Sep 06:37:28 06:41:06 42° 99° (E) 06:44:41 145.860 - 145.880
STARS 27 Sep 06:38:34 06:41:57 22° 266° (W) 06:45:22 437.465
XW-2F 27 Sep 06:46:39 06:50:21 50° 99° (E) 06:54:00 145.980 - 146.000
XW-2B 27 Sep 06:49:52 06:53:39 58° 101° (E) 06:57:21 145.730 - 145.750
NUDT-PHONESAT 27 Sep 06:56:44 07:00:23 50° 100° (E) 07:03:58 437.300
DOVE 4 27 Sep 06:57:45 07:01:36 33° 290° (WNW) 07:05:36 437.250
STRAND 1 27 Sep 06:58:27 07:03:22 51° 71° (ENE) 07:08:20 437.568
SEEDS 27 Sep 07:05:00 07:05:44 10° 88° (E) 07:06:27 437.485
XW-2C 27 Sep 07:11:27 07:15:16 73° 284° (WNW) 07:19:01 145.795 - 145.815
CUBEBUG 2 27 Sep 07:13:27 07:16:07 15° 89° (E) 07:18:47 437.445
CUTE-I 27 Sep 07:20:53 07:26:15 86° 105° (ESE) 07:31:37 437.470
AO-7 27 Sep 07:23:34 07:27:34 15° 318° (NW) 07:31:35 .
LilacSat-2 27 Sep 07:28:44 07:32:22 42° 288° (WNW) 07:35:58 437.200
KAITUO 1B 27 Sep 07:31:42 07:35:22 55° 286° (WNW) 07:38:59 145.475/437.950
CUTE 1.7 + AOD 2 27 Sep 07:38:04 07:42:06 40° 98° (E) 07:46:03 437.475
XW-2A 27 Sep 07:43:13 07:45:27 16° 93° (E) 07:47:40 145.665 - 145.685
ZACube-1 27 Sep 07:51:49 07:53:05 11° 87° (E) 07:54:19 437.345
XW-2D 27 Sep 08:12:43 08:14:55 15° 295° (WNW) 08:17:07 145.860 - 145.880
FO-29 27 Sep 08:15:06 08:19:57 34° 67° (ENE) 08:24:36 435.910
HO-68 27 Sep 08:21:07 08:28:22 87° 109° (ESE) 08:35:34 435.675
XW-2F 27 Sep 08:22:16 08:24:02 13° 296° (WNW) 08:25:47 145.980 - 146.000
XW-2B 27 Sep 08:25:59 08:27:18 12° 297° (WNW) 08:28:38 145.730 - 145.750
NUDT-PHONESAT 27 Sep 08:32:09 08:33:48 13° 296° (WNW) 08:35:27 437.300
SEEDS 27 Sep 08:37:43 08:41:53 69° 285° (WNW) 08:46:01 437.485
STRAND 1 27 Sep 08:39:08 08:42:50 20° 268° (W) 08:46:36 437.568
UWE-3 27 Sep 08:46:46 08:51:29 76° 102° (ESE) 08:56:08 435.000/436.395/437.385
AAUSAT CUBESAT 2 27 Sep 08:48:05 08:52:12 68° 102° (ESE) 08:56:15 437.432
CUBEBUG 2 27 Sep 08:48:25 08:53:06 63° 286° (WNW) 08:57:48 437.445
UNISAT 6 27 Sep 08:50:49 08:54:08 21° 65° (ENE) 08:57:30 437.425
RS-15 27 Sep 08:50:57 09:01:12 29° 345° (NNW) 09:11:18 29.354- 29.394
CUTE-I 27 Sep 09:02:44 09:05:34 15° 302° (WNW) 09:08:24 437.470
TIGRISAT 27 Sep 09:12:39 09:16:30 31° 68° (ENE) 09:20:29 435.000
Oscar 11 27 Sep 09:14:20 09:18:34 49° 99° (E) 09:22:45 .
CUTE 1.7 + AOD 2 27 Sep 09:14:38 09:17:37 19° 295° (WNW) 09:20:35 437.475
XW-2A 27 Sep 09:15:13 09:18:13 28° 289° (WNW) 09:21:11 145.665 - 145.685
AO-73 27 Sep 09:19:54 09:24:31 83° 103° (ESE) 09:29:02 145.935
ZACube-1 27 Sep 09:25:17 09:29:54 78° 285° (WNW) 09:34:26 437.345
DELFI C3 27 Sep 09:39:45 09:42:41 20° 94° (E) 09:45:36 145.870
Max Valier Satellite 27 Sep 09:52:07 09:54:56 20° 94° (E) 09:57:44 145.860
FO-29 27 Sep 10:00:14 10:05:05 31° 263° (W) 10:09:44 435.910
YUBILEINY 27 Sep 10:07:27 10:09:18 11° 71° (ENE) 10:11:08 435.215
AIST 2D 27 Sep 10:08:17 10:09:51 13° 65° (ENE) 10:11:26 435.315
PRISM 27 Sep 10:08:22 10:12:26 72° 74° (ENE) 10:16:30 437.425
